[[{"header":{"parameterUnit":"m.s-1","parameterCategory":1,"la1":30.2992,"la2":30.254,"lo1":-89.0895,"lo2":-89.0443,"dy":0.0025,"dx":0.0025,"nx":19,"ny":19,"refTime":"2026-05-23T21:00:00:Z","depth":0,"parameterNumber":2,"parameterNumberName":"U-component_of_WINDS"},"data":[0,0,0,-1.6528,-1.653,-1.6637,-1.6637,-1.6788,-1.679,0,0,0,0,0,0,0,0,0,0,0,-1.6501,-1.6502,-1.6527,-1.653,-1.6637,-1.6637,-1.6788,-1.679,0,0,0,0,0,0,0,0,0,0,0,-1.65,-1.6501,-1.6503,-1.6531,-1.6637,-1.6637,-1.6788,-1.6703,0,0,0,0,0,0,0,0,0,0,-1.6597,-1.6576,-1.6501,-1.6503,-1.6531,-1.6637,-1.6637,-1.6699,-1.6708,-1.6745,0,-1.6775,0,-1.6784,-1.68,-1.6801,0,0,0,-1.6528,-1.6568,-1.6592,-1.6503,-1.6532,-1.6636,-1.6588,-1.6704,-1.6715,-1.6758,-1.6777,-1.6782,-1.6787,-1.6801,-1.6802,-1.7011,-1.7012,0,0,-1.6522,-1.6523,-1.6584,-1.6599,-1.6579,-1.6585,-1.6591,-1.671,-1.6733,-1.6777,-1.6786,-1.6789,-1.6802,-1.6804,-1.701,-1.7011,0,0,0,-1.6507,-1.6519,-1.654,-1.6593,-1.6611,-1.6588,-1.6595,-1.6728,-1.6734,-1.6787,-1.6791,-1.6803,-1.6805,-1.7009,-1.7011,-1.7064,0,0,0,-1.6503,-1.651,-1.6538,-1.654,-1.6609,-1.667,-1.6611,-1.6726,-1.6739,-1.679,-1.6803,-1.6807,-1.7008,-1.701,-1.706,-1.709,0,0,0,-1.6492,-1.6509,-1.6525,-1.654,-1.6585,-1.6668,-1.6681,-1.6729,-1.6742,-1.6801,-1.6807,-1.7007,-1.7009,-1.7056,-1.7084,-1.7145,0,0,0,-1.6482,-1.6573,-1.6526,-1.663,-1.6584,-1.6699,-1.668,-1.6767,-1.6823,-1.6804,-1.7008,-1.701,-1.7055,-1.708,-1.7141,-1.7197,-1.722,0,0,-1.6598,-1.6587,-1.6648,-1.6609,-1.6732,-1.6682,-1.6815,-1.6867,-1.6874,-1.6966,-1.6971,-1.7061,-1.7083,-1.7144,-1.7347,-1.7366,0,0,0,-1.6686,-1.673,-1.6762,-1.6814,-1.6854,-1.6892,-1.6924,-1.6944,-1.7021,-1.692,-1.71,-1.7113,-1.7149,-1.7176,-1.7191,-1.7222,-1.7022,-1.7022,-1.7022,-1.6853,-1.6853,-1.6955,-1.6968,-1.702,-1.7051,-1.7094,-1.7126,-1.7114,-1.7157,-1.7184,-1.7307,-1.7338,-1.735,-1.7382,-1.7213,-1.7214,-1.7214,-1.7214,-1.7024,-1.7087,-1.7066,-1.7156,-1.7158,-1.7236,-1.7271,-1.7259,-1.7334,-1.7286,-1.7318,-1.7266,-1.737,-1.7398,-1.7218,-1.7217,-1.7217,-1.7216,-1.7216,-1.7134,-1.7164,-1.7184,-1.7259,-1.7319,-1.7331,-1.7403,-1.7402,-1.7403,-1.7434,-1.7464,-1.7463,-1.7463,-1.7448,-1.7448,-1.7449,-1.7449,-1.745,-1.745,-1.7241,-1.7261,-1.732,-1.737,-1.7403,-1.7448,-1.7481,-1.7515,-1.7554,-1.7548,-1.7548,-1.7533,-1.7379,-1.734,-1.7456,-1.7455,-1.7454,-1.7454,-1.7453,-1.7415,-1.7375,-1.7466,-1.7499,-1.7558,-1.7618,-1.7615,-1.7686,-1.7714,-1.7751,-1.7728,-1.7614,-1.7604,-1.7592,-1.756,-1.7726,-1.7726,-1.7726,-1.7726,-1.7508,-1.7502,-1.7595,-1.7648,-1.7701,-1.7708,-1.7814,-1.7842,-1.7864,-1.7883,-1.7859,-1.7816,-1.7804,-1.7802,-1.7785,-1.7756,-1.7968,-1.7968,-1.7968,-1.7616,-1.7615,-1.7703,-1.7721,-1.7767,-1.7808,-1.7909,-1.7975,-1.7992,-1.7978,-1.7898,-1.7888,-1.7819,-1.7797,-1.7782,-1.7755,-1.7701,0,0]},{"header":{"parameterUnit":"m.s-1","parameterCategory":1,"la1":30.2992,"la2":30.254,"lo1":-89.0895,"lo2":-89.0443,"dy":0.0025,"dx":0.0025,"nx":19,"ny":19,"refTime":"2026-05-23T21:00:00:Z","depth":0,"parameterNumber":3,"parameterNumberName":"V-component_of_WINDS"},"data":[0,0,0,2.9564,2.9568,2.9765,2.9765,3.0006,3.0008,0,0,0,0,0,0,0,0,0,0,0,2.9499,2.9501,2.9563,2.9568,2.9765,2.9766,3.0005,3.0008,0,0,0,0,0,0,0,0,0,0,0,2.9499,2.95,2.9502,2.9569,2.9764,2.9766,3.0005,2.986,0,0,0,0,0,0,0,0,0,0,2.9671,2.9606,2.95,2.9502,2.957,2.9764,2.9766,2.9854,2.9869,2.9912,0,2.9949,0,2.9982,3.0023,3.0024,0,0,0,2.9573,2.9593,2.9651,2.9502,2.9572,2.9764,2.9677,2.9863,2.988,2.9933,2.9952,2.9961,2.9986,3.0025,3.0026,3.0254,3.0255,0,0,2.9562,2.9532,2.9639,2.9663,2.9632,2.9671,2.9683,2.9874,2.9893,2.9953,2.9967,2.999,3.0026,3.0028,3.0254,3.0255,0,0,0,2.9528,2.9524,2.9578,2.9652,2.9689,2.9676,2.9691,2.9884,2.9904,2.997,2.9993,3.0028,3.003,3.0253,3.0254,3.0265,0,0,0,2.9521,2.9504,2.9573,2.9556,2.9685,2.9789,2.9697,2.9891,2.9914,2.9991,3.0028,3.0033,3.0252,3.0253,3.0263,3.0276,0,0,0,2.9489,2.95,2.9526,2.9554,2.9638,2.9787,2.9818,2.9897,2.9927,3.0024,3.0033,3.0251,3.0253,3.0261,3.0273,3.0325,0,0,0,2.9445,2.9536,2.9526,2.9636,2.9636,2.9792,2.9817,2.9936,3.002,3.0029,3.0252,3.0254,3.026,3.0271,3.0323,3.0363,3.0378,0,0,2.9542,2.9546,2.9613,2.961,2.976,2.9765,2.9917,3.0024,3.0061,3.0187,3.0194,3.0264,3.0272,3.0325,3.047,3.0481,0,0,0,2.9633,2.9681,2.9727,2.9805,2.9888,2.9959,3.0045,3.0084,3.0193,3.012,3.0299,3.0305,3.0337,3.0357,3.0367,3.0395,3.0262,3.0262,3.0262,2.9728,2.9769,2.9881,2.9945,3.0021,3.0107,3.0171,3.0239,3.026,3.0301,3.0339,3.0422,3.0445,3.0453,3.0482,3.0365,3.0365,3.0365,3.0365,2.9873,2.9946,2.9969,3.0085,3.0128,3.0226,3.0312,3.0323,3.042,3.0398,3.0428,3.04,3.0463,3.0491,3.0366,3.0366,3.0366,3.0366,3.0365,2.9939,2.9981,3.0025,3.014,3.0224,3.0285,3.0376,3.0413,3.0447,3.0477,3.0519,3.0519,3.0522,3.0495,3.0495,3.0495,3.0495,3.0496,3.0496,2.9989,3.0039,3.0111,3.0204,3.0257,3.0331,3.0416,3.047,3.0537,3.0556,3.0557,3.0572,3.0462,3.0433,3.0501,3.05,3.0499,3.0499,3.0498,3.012,3.0095,3.0206,3.0259,3.0369,3.0447,3.0491,3.0596,3.0645,3.0688,3.0697,3.061,3.0617,3.061,3.0585,3.0688,3.0688,3.0688,3.0689,3.0174,3.0181,3.0301,3.0382,3.0466,3.0516,3.0638,3.0703,3.0768,3.08,3.0791,3.0762,3.0753,3.0765,3.0755,3.0733,3.0871,3.0871,3.0871,3.0256,3.0271,3.0369,3.043,3.0517,3.0591,3.0706,3.0798,3.0866,3.0879,3.0826,3.0818,3.0772,3.0756,3.0768,3.0751,3.0711,0,0]}]]